Location: Evenskjer
(68.5830°N, 16.5670°E)
Time: 02:15:11
(UTC+01:00)

Envisat - Visible Passes

Search period start: 20 March 2019 00:00
Search period end: 30 March 2019 00:00
Orbit: 764 x 766 km, 98.2° (Epoch: 19 March)

Date Brightness Start Highest point End Pass type
(mag) Time Alt. Az. Time Alt. Az. Time Alt. Az.
20 Mar 5.2 19:20:40 10° SSW 19:25:07 30° W 19:29:36 10° NNW visible
20 Mar 6.5 21:05:14 10° WNW 21:05:55 10° WNW 21:06:36 10° WNW visible
21 Mar 6.0 20:25:22 10° WSW 20:28:23 16° WNW 20:31:24 10° NW visible
22 Mar 5.7 19:47:00 10° SW 19:51:00 23° W 19:55:01 10° NNW visible
23 Mar 5.0 19:09:10 10° SSW 19:13:47 33° W 19:18:24 10° NNW visible
23 Mar 6.3 20:52:41 10° W 20:54:27 12° WNW 20:56:13 10° NW visible
24 Mar 5.9 20:13:36 10° WSW 20:16:58 17° WNW 20:20:20 10° NW visible
25 Mar 5.5 19:35:26 10° SW 19:39:38 25° W 19:43:51 10° NNW visible
26 Mar 6.1 20:40:37 10° W 20:43:00 13° WNW 20:45:23 10° NW visible
27 Mar 5.8 20:01:54 10° SW 20:05:33 19° W 20:09:13 10° NNW visible
29 Mar 6.0 20:28:42 10° WSW 20:31:33 15° WNW 20:34:25 10° NW visible
